Location: Haliburton Scout Reserve
(45.0900°N, 78.3200°W)
Time: 13:32:01
(UTC-05:00)

Vanguard 1 - All Passes

Search period start: 07 February 2023 00:00
Search period end: 17 February 2023 00:00
Orbit: 650 x 3831 km, 34.2° (Epoch: 06 February)

Date Brightness Start Highest point End Pass type
(mag) Time Alt. Az. Time Alt. Az. Time Alt. Az.
07 Feb - 02:56:45 10° S 02:59:54 15° SE 03:03:49 10° ESE visible
07 Feb - 05:12:40 10° SW 05:18:53 40° SSE 05:29:32 10° ESE visible
07 Feb - 07:31:15 10° WSW 07:39:48 44° S 07:54:54 10° ESE daylight
07 Feb - 09:51:46 10° W 10:02:12 30° SSW 10:17:51 10° SSE daylight
07 Feb - 12:21:10 10° SW 12:25:04 11° SW 12:29:15 10° SSW daylight
08 Feb - 03:15:55 10° SSW 03:19:56 20° SSE 03:25:23 10° ESE visible
08 Feb - 05:32:53 10° WSW 05:39:17 42° S 05:50:26 10° ESE visible
08 Feb - 07:51:47 10° WSW 08:00:26 40° SSW 08:15:19 10° SE daylight
08 Feb - 10:13:04 10° WSW 10:22:52 24° SSW 10:36:44 10° SSE daylight
09 Feb - 03:35:34 10° SSW 03:40:03 25° SSE 03:46:33 10° ESE visible
09 Feb - 05:53:11 10° WSW 05:59:45 42° S 06:11:15 10° ESE visible
09 Feb - 08:12:25 10° WSW 08:21:05 35° SSW 08:35:28 10° SE daylight
09 Feb - 10:35:01 10° WSW 10:43:32 18° SSW 10:54:43 10° S daylight
10 Feb - 03:55:29 10° SW 04:00:16 30° SSE 04:07:31 10° ESE visible
10 Feb - 06:13:32 10° WSW 06:20:16 41° S 06:31:56 10° ESE visible
10 Feb - 08:33:13 10° WSW 08:41:44 30° SSW 08:55:14 10° SSE daylight
10 Feb - 10:58:24 10° WSW 11:04:11 13° SW 11:10:59 10° SSW daylight
11 Feb - 02:00:11 10° SSE 02:01:45 11° SE 02:03:28 10° SE visible
11 Feb - 04:15:35 10° SW 04:20:35 33° SSE 04:28:24 10° ESE visible
11 Feb - 06:34:00 10° WSW 06:40:48 38° S 06:52:27 10° SE visible
11 Feb - 08:54:17 10° WSW 09:02:24 25° SSW 09:14:32 10° SSE daylight
12 Feb - 02:18:55 10° S 02:21:52 16° SSE 02:25:22 10° ESE visible
12 Feb - 04:35:47 10° WSW 04:40:57 35° S 04:49:10 10° ESE visible
12 Feb - 06:54:32 10° WSW 07:01:22 34° S 07:12:45 10° SE daylight
12 Feb - 09:15:48 10° WSW 09:23:05 19° SSW 09:33:07 10° S daylight
13 Feb - 02:38:30 10° SSW 02:42:02 20° SSE 02:46:32 10° ESE visible
13 Feb - 04:56:06 10° WSW 05:01:22 35° S 05:09:51 10° ESE visible
13 Feb - 07:15:13 10° WSW 07:21:59 29° SSW 07:32:46 10° SE daylight
13 Feb - 09:38:20 10° WSW 09:43:45 14° SSW 09:50:28 10° S daylight
14 Feb - 02:58:23 10° SW 03:02:17 24° SSE 03:07:26 10° ESE visible
14 Feb - 05:16:28 10° WSW 05:21:50 33° S 05:30:23 10° ESE visible
14 Feb - 07:36:08 10° WSW 07:42:36 24° SSW 07:52:22 10° SSE daylight
15 Feb - 03:18:29 10° SW 03:22:35 27° SSE 03:28:11 10° ESE visible
15 Feb - 05:36:58 10° WSW 05:42:20 30° S 05:50:46 10° SE visible
15 Feb - 07:57:24 10° WSW 08:03:14 19° SSW 08:11:23 10° SSE daylight
16 Feb - 01:21:37 10° S 01:23:53 14° SSE 01:26:18 10° SE night (unlit)
16 Feb - 03:38:43 10° SW 03:42:56 29° S 03:48:50 10° ESE visible
16 Feb - 05:57:34 10° WSW 06:02:51 26° S 06:10:55 10° SE visible
16 Feb - 08:19:30 10° SW 08:23:53 14° SSW 08:29:20 10° S daylight
